Zurück zum Katalog

BREEZE-M R/B

AktivHEO
NORAD 50003·ROCKET BODY·🇷🇺 Russia

Gestartet Dec 13, 2021 von Baikonur Cosmodrome

Loading…

Nächste Überflüge (nächste 24 Stunden)

TLE

AktuellSource: Space-Track

Epoche: Sep 13, 2026, 18:52 UTC

1 50003U 21123C   26256.78643094 -.00000203  00000-0  00000-0 0  9995
2 50003   6.0463  84.3392 4396318  59.6048 337.0631  1.07952816 18803

Verfolge BREEZE-M R/B in Echtzeit mit AllMySat

Download on the App Store